Home   Weather   Kyiv   Past weeks

Flag for Ukraine Past Weather in Kyiv, Ukraine — Yesterday and Last 2 Weeks

Now
46 °F

Fog.


Feels Like: 46 °F
Forecast: 44 / 60 °F
Wind: No wind

Location: Kyiv

Current Time: Sep 25, 2016 at 5:03:01 AM

Latest Report: Sep 25, 2016 at 4:30 AM


Visibility: 3 mi

Pressure: 30.15 "Hg

Humidity: 100%

Dew Point: 46 °F

Location of KyivLocation

Past Weather in Kyiv — Graph

°F

Kyiv Temperature Yesterday

Maximum temperature yesterday: 63 °F (at 1:30 PM)
Minimum temperature yesterday: 41 °F (at 12:00 AM)
Average temperature yesterday: 52 °F

High & Low Weather Summary for the Past Weeks

 TemperatureHumidityPressure
High84 °F (Sep 11, 4:30 PM)100% (Sep 12, 7:00 AM)30.21 "Hg (Sep 12, 7:00 AM)
Low37 °F (Sep 19, 5:30 AM)29% (Sep 16, 4:00 PM)29.80 "Hg (Sep 20, 2:30 PM)
Average57 °F69%30.01 "Hg
* Reported Sep 10 4:00 AM — Sep 25 4:00 AM, Kyiv, Weather by CustomWeather, © 2016

Note: Actual official high and low records may vary slightly from our data, if they occured in-between our weather recording intervals... More about our weather records

Advertising

Kyiv Weather History for the Previous 24 Hours

Scroll right to see more
 ConditionsComfort  
Time TempWeatherWind HumidityBarometerVisibility
4:00 AM
Sun, Sep 25
45 °FFog.3 mph93%30.15 "Hg3 mi
3:30 AM45 °FFog.1 mph100%30.15 "Hg2 mi
3:00 AM45 °FFog.3 mph100%30.15 "Hg2 mi
2:30 AM43 °FFog.No wind100%30.15 "Hg2 mi
2:00 AM45 °FFog.No wind100%30.15 "Hg1 mi
1:30 AM43 °FPassing clouds.No wind100%30.15 "Hg1 mi
1:00 AM45 °FFog.1 mph100%30.15 "Hg1 mi
12:30 AM45 °FFog.No wind100%30.15 "Hg1 mi
12:00 AM45 °FFog.No wind100%30.15 "Hg2 mi
11:30 PM
Sat, Sep 24
46 °FFog.No wind100%30.15 "Hg2 mi
11:00 PM46 °FClear.1 mph100%30.15 "Hg1 mi
10:30 PM48 °FClear.No wind94%30.15 "Hg2 mi
10:00 PM50 °FClear.1 mph94%30.15 "Hg4 mi
9:30 PM52 °FClear.1 mph82%30.15 "Hg2 mi
9:00 PM54 °FClear.3 mph82%30.15 "Hg6 mi
8:30 PM55 °FSprinkles. Partly cloudy.3 mph77%30.18 "Hg2 mi
8:00 PM55 °FClear.1 mph77%30.15 "Hg4 mi
7:30 PM55 °FClear.1 mph72%30.15 "Hg10 mi
7:00 PM57 °FClear.3 mph67%30.15 "Hg10 mi
6:30 PM61 °FSunny.3 mph55%30.15 "Hg10 mi
6:00 PM61 °FBroken clouds.8 mph55%30.15 "HgN/A
5:30 PM63 °FBroken clouds.6 mph52%30.15 "HgN/A
5:00 PM61 °FSunny.6 mph59%30.15 "Hg10 mi
4:30 PM61 °FBroken clouds.8 mph59%30.15 "HgN/A
4:00 PM61 °FBroken clouds.8 mph55%30.15 "HgN/A
3:30 PM63 °FBroken clouds.8 mph56%30.15 "HgN/A
3:00 PM63 °FBroken clouds.8 mph56%30.18 "HgN/A
2:30 PM63 °FPassing clouds.10 mph56%30.18 "HgN/A
2:00 PM61 °FBroken clouds.8 mph55%30.18 "HgN/A
1:30 PM63 °FBroken clouds.8 mph52%30.18 "HgN/A
1:00 PM61 °FPartly sunny.8 mph59%30.18 "HgN/A
12:30 PM61 °FPartly sunny.10 mph55%30.18 "HgN/A
12:00 PM59 °FPassing clouds.8 mph63%30.21 "HgN/A
11:30 AM57 °FSunny.10 mph63%30.21 "Hg10 mi
11:00 AM57 °FPassing clouds.8 mph63%30.21 "HgN/A
10:30 AM55 °FPartly sunny.6 mph67%30.21 "HgN/A
10:00 AM54 °FPassing clouds.3 mph77%30.21 "HgN/A
9:30 AM48 °FSunny.6 mph87%30.21 "Hg10 mi
9:00 AM48 °FSunny.6 mph87%30.21 "Hg10 mi
8:30 AM46 °FClear.3 mph93%30.21 "Hg6 mi
8:00 AM45 °FSunny.3 mph93%30.21 "Hg10 mi
7:30 AM45 °FClear.3 mph93%30.21 "Hg4 mi
7:00 AM43 °FClear.3 mph93%30.18 "Hg6 mi
6:30 AM43 °FClear.3 mph93%30.18 "Hg6 mi
6:00 AM43 °FClear.3 mph100%30.18 "Hg6 mi
5:30 AM45 °FClear.3 mph93%30.18 "Hg10 mi
5:00 AM45 °FClear.3 mph93%30.18 "Hg10 mi
Weather by CustomWeather, © 2016

See weather overviewHow to use our weather pages